Regional Weather Roundup
Issued by NWS State College, PA

Home | Current Version | Previous Version | Graphics & Text | Print | Product List | Glossary On
Versions: 1 2 3 4 5 6 7 8 9 10 11 12 13 14 15 16 17 18 19 20 21 22 23 24 25 26 27 28 29 30 31 32 33 34 35 36 37 38 39 40 41 42 43 44 45 46 47 48 49 50
000
ASUS41 KCTP 070103
RWRCTP

REGIONAL WEATHER ROUNDUP
NATIONAL WEATHER SERVICE STATE COLLEGE PA
900 PM EDT MON JUL 06 2015

Note: "fair" indicates few or no clouds below 12,000 feet with no
significant weather and/or obstructions to visibility.

* = STATION THAT DOES NOT REPORT PRECIPITATION /E.G. RAIN...SNOW...ETC/
    THUNDER OR FOG.

PAZ002>004-007>009-013>016-020>023-029>032-070200-
WESTERN PENNSYLVANIA

CITY           SKY/WX    TMP DP  RH WIND       PRES   REMARKS
ERIE           CLEAR     74  63  68 SE5       29.99F
MEADVILLE      LGT RAIN  72  64  76 NW5       30.03S
FRANKLIN*      CLOUDY    72  63  73 SW3       30.04S
NEW CASTLE     FAIR      75  71  87 CALM      30.01F
BEAVER COUNTY  CLEAR     73  70  88 CALM      30.02F
BUTLER*        CLOUDY    73  68  83 CALM      30.03S
PITTSBURGH INT CLOUDY    74  67  78 CALM      30.01F
PITTSBURGH     MOCLDY    72  64  76 SW6       30.01S
INDIANA*       CLOUDY    72  70  94 E5        30.06F
LATROBE        PTCLDY    72  72 100 CALM      30.03F
WASHINGTON CO* NOT AVBL
$$

PAZ004>006-010>012-017>019-024>028-033>037-041-042-045-046-049>053-070200-
CENTRAL PENNSYLVANIA

CITY           SKY/WX    TMP DP  RH WIND       PRES   REMARKS
BRADFORD       PTCLDY    69  64  84 SE6       30.08F
DUBOIS         CLOUDY    74  67  78 SE7       30.05S
CLEARFIELD     MOCLDY    72  67  84 CALM      30.06R
JOHNSTOWN      MOCLDY    69  65  86 SE5       30.07S
ALTOONA        PTCLDY    70  67  90 SE3       30.05F
STATE COLLEGE  CLOUDY    72  70  94 CALM      30.06S
WILLIAMSPORT   PTCLDY    78  68  71 NE6       30.01F
SELINSGROVE    MOCLDY    76  71  85 CALM      30.03F
FT INDIANTOWN  DRIZZLE   76  71  83 SE5       30.04S
CAPITAL CITY   PTCLDY    74  68  81 S5        30.02S
HARRISBURG     MOCLDY    74  67  78 E5        30.02S
YORK           PTCLDY    71  70  96 SE5       30.03F
$$

PAZ038>040-043-044-047-048-054-055-060>062-067>071-070200-
EASTERN PENNSYLVANIA

CITY           SKY/WX    TMP DP  RH WIND       PRES   REMARKS
SCRANTON       MOCLDY    77  66  68 VRB3      30.06F
MOUNT POCONO   MOCLDY    70  65  84 SE8       30.12F
ALLENTOWN      LGT RAIN  75  72  90 E8        30.06F
QUAKERTOWN*    CLOUDY    73  73 100 E7        30.08S
READING        MOCLDY    75  71  87 SW5       30.03F
LANCASTER      MOCLDY    76  71  85 SE8       30.04S
COATESVILLE    MOCLDY    75  75 100 SE5       30.08R
POTTSTOWN      CLOUDY    74  73  97 CALM      30.07S
BLUE BELL      MOCLDY    79  73  83 SE5       30.06R
DOYLESTOWN     CLOUDY    75  72  90 CALM      30.07R THUNDER
WILLOW GROVE   NOT AVBL
NORTH PHILA    PTCLDY    80  68  66 SE9       30.08S
PHILADELPHIA   MOCLDY    80  69  69 SE9       30.06S
$$



USA.gov is the U.S. government's official web portal to all federal, state and local government web resources and services.